[[{"header":{"parameterUnit":"m.s-1","parameterCategory":1,"la1":30.2991,"la2":30.254,"lo1":-89.0895,"lo2":-89.0444,"dy":0.0017,"dx":0.0017,"nx":28,"ny":28,"refTime":"2024-06-20T03:00:00:Z","depth":0,"parameterNumber":2,"parameterNumberName":"U-component_of_WINDS"},"data":[0,0,0,0,0,0,0,0,0,0,0,0,0,0,0,0,0,0,0,0,0,0,0,0,0,0,0,0,0,0,0,0,0,0,0,0,0,0,0,0,0,0,0,0,0,0,0,0,0,0,0,0,0,0,0,0,0,0,-3.6336,-3.6336,0,-3.6318,-3.6317,-3.6317,-3.6178,-3.6174,-3.6171,-3.6167,-3.615,-3.6153,-3.6156,0,0,0,0,0,0,0,0,0,0,0,0,0,-3.6254,-3.6256,-3.6336,-3.6336,-3.6336,-3.6318,-3.6317,-3.6317,-3.6178,-3.6174,-3.617,-3.6166,-3.6149,-3.6153,-3.6156,0,0,0,0,0,0,0,0,0,0,0,0,0,-3.6268,-3.6257,-3.6336,-3.6264,-3.6258,-3.6318,-3.6317,-3.6317,-3.6179,-3.6174,-3.6169,-3.6164,-3.6148,-3.6152,-3.6156,-3.6285,0,0,-3.6169,-3.6171,0,0,0,0,0,0,0,0,-3.6268,-3.6271,-3.6275,-3.6269,-3.6262,-3.6245,-3.6282,-3.6307,-3.618,-3.6209,-3.6167,-3.6161,-3.6186,-3.6187,-3.6195,-3.6284,-3.6284,-3.6169,-3.6172,-3.6174,-3.6175,0,0,0,0,0,0,0,-3.6267,-3.6271,-3.6329,-3.6275,-3.6267,-3.6234,-3.623,-3.6286,-3.6227,-3.6206,-3.6196,-3.6195,-3.6181,-3.6191,-3.6193,-3.6283,-3.6169,-3.6173,-3.6176,-3.6177,-3.6479,-3.6485,0,0,0,0,0,0,-3.6275,-3.6271,-3.6329,-3.6328,-3.6252,-3.6239,-3.6235,-3.6255,-3.6226,-3.6216,-3.62,-3.6189,-3.6186,-3.6189,-3.6192,-3.6342,-3.6174,-3.6178,-3.618,-3.6474,-3.6481,-3.6487,0,0,0,0,0,0,-3.6274,-3.6282,-3.633,-3.6297,-3.6301,-3.6246,-3.627,-3.6258,-3.6267,-3.6221,-3.621,-3.622,-3.6182,-3.6186,-3.6263,-3.6339,-3.6179,-3.6183,-3.6467,-3.6476,-3.6484,-3.6642,0,0,0,0,0,0,-3.6272,-3.6282,-3.633,-3.6299,-3.6303,-3.6402,-3.6275,-3.6261,-3.6274,-3.626,-3.6237,-3.6229,-3.6179,-3.6258,-3.6267,-3.6342,-3.6186,-3.646,-3.6471,-3.6481,-3.6629,-3.6654,-3.6676,0,0,0,0,0,-3.627,-3.6375,-3.6333,-3.6341,-3.6361,-3.6406,-3.6408,-3.6348,-3.6281,-3.6329,-3.63,-3.6229,-3.6329,-3.6267,-3.6276,-3.6353,-3.6455,-3.6468,-3.648,-3.6619,-3.665,-3.6675,0,0,0,0,0,0,-3.6417,-3.637,-3.6323,-3.6421,-3.6419,-3.6382,-3.6441,-3.6382,-3.6399,-3.6385,-3.631,-3.6306,-3.6395,-3.6382,-3.6313,-3.6477,-3.638,-3.6395,-3.6483,-3.6511,-3.6534,-3.6535,-3.619,0,0,0,0,0,-3.646,-3.65,-3.6457,-3.6548,-3.6549,-3.6496,-3.6513,-3.6467,-3.6462,-3.646,-3.6436,-3.6435,-3.6465,-3.6487,-3.6513,-3.6627,-3.6621,-3.6685,-3.6708,-3.6727,-3.6741,-3.6802,-3.683,-3.6528,-3.6527,-3.6527,0,0,-3.6551,-3.6531,-3.656,-3.6577,-3.657,-3.6614,-3.6496,-3.6546,-3.6578,-3.6468,-3.6539,-3.6522,-3.6515,-3.6612,-3.6653,-3.6603,-3.6823,-3.6743,-3.6759,-3.6762,-3.6817,-3.6846,-3.6872,-3.6536,-3.6534,-3.6533,0,0,-3.6739,-3.6727,-3.6802,-3.6797,-3.6788,-3.6752,-3.677,-3.6743,-3.6728,-3.6798,-3.6716,-3.6754,-3.6808,-3.6807,-3.6814,-3.7004,-3.694,-3.7014,-3.7135,-3.7195,-3.7219,-3.724,-3.7308,-3.7334,-3.7028,-3.7028,-3.7029,0,-3.6853,-3.6915,-3.6848,-3.6905,-3.6915,-3.6817,-3.6893,-3.6892,-3.6892,-3.6902,-3.6847,-3.6914,-3.6902,-3.6998,-3.7044,-3.7053,-3.7072,-3.7016,-3.7221,-3.7241,-3.7259,-3.7324,-3.735,-3.7038,-3.7037,-3.7036,-3.7035,0,-3.7056,-3.7101,-3.7163,-3.7165,-3.7182,-3.7249,-3.7193,-3.7219,-3.7172,-3.7143,-3.7217,-3.7199,-3.7221,-3.724,-3.7194,-3.733,-3.7299,-3.7234,-3.7135,-3.7298,-3.7358,-3.7382,-3.7051,-3.7047,-3.7045,-3.7042,0,0,-3.7335,-3.7301,-3.7325,-3.7325,-3.7308,-3.7342,-3.7404,-3.7425,-3.7449,-3.7453,-3.7504,-3.7554,-3.7493,-3.7501,-3.7454,-3.7507,-3.766,-3.7434,-3.7433,-3.7478,-3.781,-3.786,-3.789,-3.7618,-3.7622,-3.7626,-3.781,0,-3.7516,-3.762,-3.7563,-3.7676,-3.7716,-3.7625,-3.7679,-3.7676,-3.765,-3.7682,-3.7653,-3.769,-3.7607,-3.7611,-3.7659,-3.7631,-3.7726,-3.7617,-3.7666,-3.7669,-3.7671,-3.792,-3.7973,-3.8148,-3.7833,-3.7837,-3.784,0,-3.7741,-3.7755,-3.7872,-3.7848,-3.7863,-3.7913,-3.7928,-3.7959,-3.7954,-3.7932,-3.7942,-3.7883,-3.7944,-3.7847,-3.793,-3.7858,-3.7875,-3.7865,-3.787,-3.7872,-3.7765,-3.7931,-3.8202,-3.8229,-3.7876,-3.7873,-3.787,0,-3.7934,-3.7982,-3.8058,-3.8061,-3.8035,-3.8073,-3.8064,-3.8054,-3.807,-3.8084,-3.8094,-3.8115,-3.8127,-3.8145,-3.8094,-3.8028,-3.8186,-3.8083,-3.817,-3.8172,-3.8207,-3.8206,-3.8487,-3.8218,-3.8217,-3.8217,-3.8216,0,-3.8143,-3.8218,-3.8144,-3.8191,-3.8274,-3.8208,-3.8291,-3.8272,-3.8264,-3.8307,-3.8229,-3.8271,-3.8201,-3.8237,-3.8198,-3.8274,-3.828,-3.8264,-3.8253,-3.8272,-3.8274,-3.8282,-3.8269,-3.8224,-3.8222,-3.8221,-3.822,0,-3.8372,-3.8326,-3.8403,-3.8373,-3.8367,-3.8429,-3.8403,-3.8446,-3.8416,-3.8471,-3.848,-3.8433,-3.8471,-3.8422,-3.8455,-3.8429,-3.8534,-3.8504,-3.8536,-3.8527,-3.8617,-3.861,-3.8913,-3.895,-3.8657,-3.866,-3.8662,0,-3.8508,-3.8564,-3.854,-3.8563,-3.8559,-3.8597,-3.8613,-3.8551,-3.8572,-3.8571,-3.8615,-3.8646,-3.8668,-3.8733,-3.8702,-3.8727,-3.8698,-3.8803,-3.8701,-3.8719,-3.8701,-3.8698,-3.8704,-3.8824,-3.8827,-3.883,-3.8832,0,-3.8756,-3.873,-3.8757,-3.8777,-3.8799,-3.8811,-3.8818,-3.8841,-3.8777,-3.8804,-3.8842,-3.8859,-3.8893,-3.8926,-3.8943,-3.8935,-3.8874,-3.8865,-3.8886,-3.8906,-3.8922,-3.8916,-3.8593,-3.8858,-3.8855,-3.8853,-3.8852,-3.8851,-3.8943,-3.8989,-3.898,-3.9013,-3.9011,-3.902,-3.9059,-3.9034,-3.9064,-3.9087,-3.9048,-3.9097,-3.9091,-3.9108,-3.9107,-3.9145,-3.9099,-3.913,-3.9138,-3.9147,-3.9161,-3.8916,-3.9148,-3.9147,-3.9146,-3.9145,-3.9145,0,-3.9187,-3.9177,-3.9208,-3.922,-3.9246,-3.9186,-3.9191,-3.9217,-3.926,-3.926,-3.9283,-3.9328,-3.9359,-3.9332,-3.9358,-3.9394,-3.9366,-3.9403,-3.94,-3.9399,-3.92,-3.9179,-3.9424,-3.9424,-3.9424,-3.9424,-3.9424,-3.9424,-3.9317,-3.9392,-3.9366,-3.944,-3.9429,-3.9475,-3.9483,-3.9491,-3.9491,-3.9544,-3.957,-3.9551,-3.9541,-3.9566,-3.9593,-3.9584,-3.9598,-3.9644,-3.9626,-3.944,-3.9413,-3.9387,-3.9367,-3.9648,-3.9648,-3.9822,-3.9824,-3.9825]},{"header":{"parameterUnit":"m.s-1","parameterCategory":1,"la1":30.2991,"la2":30.254,"lo1":-89.0895,"lo2":-89.0444,"dy":0.0017,"dx":0.0017,"nx":28,"ny":28,"refTime":"2024-06-20T03:00:00:Z","depth":0,"parameterNumber":3,"parameterNumberName":"V-component_of_WINDS"},"data":[0,0,0,0,0,0,0,0,0,0,0,0,0,0,0,0,0,0,0,0,0,0,0,0,0,0,0,0,0,0,0,0,0,0,0,0,0,0,0,0,0,0,0,0,0,0,0,0,0,0,0,0,0,0,0,0,0,0,1.315,1.3151,0,1.3173,1.3173,1.3173,1.3198,1.3198,1.3198,1.3199,1.322,1.322,1.322,0,0,0,0,0,0,0,0,0,0,0,0,0,1.3128,1.3128,1.315,1.3151,1.3151,1.3173,1.3173,1.3173,1.3197,1.3198,1.3198,1.3199,1.322,1.322,1.322,0,0,0,0,0,0,0,0,0,0,0,0,0,1.3142,1.3128,1.315,1.3166,1.3167,1.3173,1.3173,1.3173,1.3197,1.3198,1.3198,1.3199,1.3219,1.322,1.322,1.3212,0,0,1.3221,1.3221,0,0,0,0,0,0,0,0,1.3142,1.3143,1.3163,1.3165,1.3166,1.3183,1.3173,1.3186,1.3197,1.3186,1.3199,1.3199,1.3207,1.3208,1.3211,1.3213,1.3213,1.3221,1.3221,1.3222,1.3222,0,0,0,0,0,0,0,1.3141,1.3142,1.3159,1.3163,1.3165,1.3171,1.3174,1.3175,1.3193,1.3187,1.3189,1.3191,1.3208,1.3211,1.3212,1.3214,1.3221,1.3221,1.3222,1.3222,1.321,1.3209,0,0,0,0,0,0,1.3137,1.3141,1.3158,1.316,1.3155,1.3171,1.3174,1.3177,1.3193,1.3196,1.3191,1.3192,1.321,1.3211,1.3213,1.3204,1.3222,1.3222,1.3222,1.321,1.321,1.3209,0,0,0,0,0,0,1.3137,1.3139,1.3157,1.3151,1.3154,1.3171,1.3174,1.3177,1.318,1.3196,1.3199,1.319,1.321,1.3212,1.3212,1.3205,1.3222,1.3222,1.3211,1.321,1.3209,1.3185,0,0,0,0,0,0,1.3136,1.3138,1.3135,1.3151,1.3154,1.3156,1.3174,1.3177,1.3181,1.3183,1.3197,1.3199,1.3211,1.3211,1.3212,1.3205,1.3223,1.3212,1.321,1.321,1.3187,1.3184,1.3181,0,0,0,0,0,1.3135,1.3127,1.3135,1.3137,1.3151,1.3156,1.3158,1.3172,1.318,1.3177,1.3188,1.3199,1.3206,1.3211,1.3212,1.3206,1.3212,1.3211,1.321,1.3188,1.3184,1.3181,0,0,0,0,0,0,1.3109,1.3129,1.3138,1.3135,1.3144,1.316,1.3156,1.3168,1.3173,1.3175,1.3192,1.3195,1.3192,1.3199,1.3205,1.3198,1.3211,1.321,1.3194,1.319,1.3188,1.3185,1.3223,0,0,0,0,0,1.3103,1.3106,1.3124,1.3119,1.3123,1.3139,1.3142,1.3152,1.3161,1.3165,1.3175,1.3183,1.3187,1.319,1.3194,1.3189,1.3192,1.3185,1.3182,1.318,1.3178,1.3176,1.3173,1.3205,1.3205,1.3205,0,0,1.3091,1.3102,1.3103,1.3114,1.3122,1.3124,1.3142,1.3143,1.3145,1.3165,1.3165,1.3173,1.3184,1.3181,1.318,1.3186,1.317,1.3178,1.3176,1.3176,1.3174,1.3171,1.3168,1.3204,1.3204,1.3205,0,0,1.3069,1.3078,1.3075,1.3083,1.3095,1.3106,1.3106,1.3121,1.3127,1.3128,1.3143,1.3145,1.3152,1.3159,1.3163,1.3145,1.3156,1.3146,1.3131,1.3129,1.3126,1.3124,1.3117,1.3114,1.3145,1.3145,1.3145,0,1.3051,1.3055,1.3072,1.3073,1.3078,1.3097,1.3095,1.3101,1.3114,1.3117,1.3124,1.3133,1.3142,1.314,1.3136,1.3139,1.3139,1.3144,1.3125,1.3123,1.3121,1.3115,1.3112,1.3144,1.3144,1.3144,1.3144,0,1.3033,1.3036,1.3032,1.3045,1.3049,1.3048,1.3065,1.3068,1.3078,1.3088,1.3089,1.31,1.3107,1.3108,1.3118,1.3109,1.3112,1.3122,1.3134,1.3117,1.3111,1.3108,1.3142,1.3142,1.3143,1.3143,0,0,1.2993,1.3017,1.3015,1.3021,1.3037,1.3039,1.3039,1.3047,1.3049,1.3057,1.3057,1.3064,1.3073,1.3078,1.3089,1.3087,1.3072,1.3098,1.3098,1.3091,1.3062,1.3053,1.305,1.308,1.3079,1.3079,1.306,0,1.2973,1.2975,1.2991,1.2988,1.299,1.301,1.301,1.302,1.303,1.3033,1.3044,1.3048,1.3061,1.3064,1.3063,1.3074,1.3066,1.3076,1.3079,1.3079,1.3074,1.3047,1.3037,1.3019,1.3058,1.3058,1.3058,0,1.2949,1.2957,1.2954,1.2971,1.2973,1.2973,1.2981,1.2985,1.2996,1.3004,1.301,1.3023,1.3024,1.3037,1.3039,1.3045,1.3048,1.3053,1.3053,1.3052,1.3066,1.3044,1.3014,1.301,1.3054,1.3055,1.3055,0,1.2919,1.2929,1.2929,1.2934,1.2953,1.2953,1.2961,1.2973,1.2977,1.2985,1.2988,1.2995,1.2999,1.3005,1.3019,1.3028,1.3019,1.3033,1.3024,1.3024,1.302,1.302,1.2988,1.3024,1.3024,1.3024,1.3024,0,1.2893,1.2891,1.2916,1.2916,1.2914,1.2933,1.293,1.294,1.2951,1.2952,1.297,1.2971,1.2991,1.2995,1.3007,1.3006,1.3008,1.3013,1.3016,1.3011,1.301,1.3011,1.3012,1.3024,1.3024,1.3024,1.3024,0,1.2858,1.2875,1.2877,1.2896,1.29,1.2898,1.2914,1.2914,1.2926,1.2928,1.293,1.2948,1.2953,1.2969,1.2978,1.2986,1.2981,1.2988,1.2977,1.2979,1.2969,1.2969,1.2936,1.2932,1.2972,1.2971,1.2971,0,1.284,1.2839,1.2859,1.2861,1.2869,1.2873,1.2878,1.2897,1.2901,1.2915,1.2913,1.292,1.2926,1.2934,1.2947,1.2954,1.296,1.2948,1.2961,1.2956,1.2959,1.2958,1.2957,1.2944,1.2944,1.2944,1.2943,0,1.2806,1.2815,1.2821,1.2831,1.2836,1.2844,1.2853,1.2855,1.2876,1.288,1.2886,1.2891,1.29,1.2907,1.2916,1.2924,1.2937,1.2939,1.2938,1.2931,1.2925,1.2927,1.2968,1.294,1.294,1.294,1.294,1.294,1.2778,1.2778,1.2792,1.2799,1.2808,1.2816,1.2818,1.2831,1.2836,1.2846,1.2857,1.2862,1.2874,1.2888,1.2895,1.2899,1.2906,1.2903,1.2902,1.2901,1.2898,1.2926,1.2901,1.2901,1.2901,1.2901,1.2901,0,1.2744,1.2755,1.2761,1.2773,1.2779,1.2792,1.2803,1.2806,1.2811,1.2821,1.2828,1.2835,1.2841,1.2856,1.2864,1.2864,1.287,1.2865,1.2865,1.2866,1.2892,1.2892,1.286,1.286,1.286,1.286,1.286,1.286,1.2727,1.2727,1.2738,1.2743,1.2754,1.2759,1.2764,1.2772,1.2781,1.2788,1.2794,1.2804,1.2817,1.2826,1.2832,1.2837,1.2838,1.2831,1.2837,1.286,1.2864,1.2868,1.2868,1.2831,1.2831,1.281,1.281,1.281]}]]